This is the latest recevied weather packets stored in our database for station/object EA5AER-5. If no packets are shown the sender has not sent any weather packets the latest 10 day(s).
| Time | Temp. | Humidity | Pressure | Rain* | Wind** | Luminosity | Snow |
|---|---|---|---|---|---|---|---|
| 1777174653 | 14.44° C | 3% | 1015.7 hPa | 0 mm | - | 0 W/m² | - |
| 1777173499 | 14.44° C | 5% | 1015.6 hPa | 0 mm | - | 0 W/m² | - |
| 1777172184 | 14.44° C | 3% | 1015.6 hPa | 0 mm | - | 0 W/m² | - |
| 1777171049 | 14.44° C | 3% | 1015.6 hPa | 0 mm | - | 0 W/m² | - |
| 1777169849 | 14.44° C | 10% | 1015.5 hPa | 0 mm | - | 0 W/m² | - |
| 1777168673 | 14.44° C | 6% | 1015.5 hPa | 0 mm | - | 0 W/m² | - |
| 1777167449 | 14.44° C | 6% | 1015.5 hPa | 0 mm | - | 0 W/m² | - |
| 1777166341 | 15.56° C | 22% | 1016.8 hPa | 0 mm | - | 0 W/m² | - |
| 1777165206 | 15.56° C | 22% | 1016.8 hPa | 0 mm | - | 0 W/m² | - |
| 1777163939 | 15.56° C | 22% | 1016.8 hPa | 0 mm | - | 0 W/m² | - |
| 1777162699 | 15.56° C | 22% | 1016.8 hPa | 0 mm | - | 0 W/m² | - |
| 1777161452 | 15.56° C | 22% | 1016.8 hPa | 0 mm | - | 0 W/m² | - |
| 1777160229 | 15.56° C | 22% | 1016.8 hPa | 0 mm | - | 0 W/m² | - |
| 1777159049 | 15.56° C | 28% | 1016.7 hPa | 0 mm | - | 0 W/m² | - |
| 1777157835 | 15.56° C | 29% | 1016.7 hPa | 0 mm | - | 0 W/m² | - |
| 1777156528 | 15.56° C | 34% | 1016.6 hPa | 0 mm | - | 0 W/m² | - |
| 1777155346 | 17.22° C | 48% | 1016.5 hPa | 0 mm | - | 0 W/m² | - |
| 1777154191 | 17.22° C | 48% | 1016.5 hPa | 0 mm | - | 0 W/m² | - |
| 1777153024 | 17.22° C | 48% | 1016.5 hPa | 0 mm | - | 0 W/m² | - |
| 1777151795 | 17.22° C | 48% | 1016.5 hPa | 0 mm | - | 0 W/m² | - |
| 1777150636 | 17.22° C | 48% | 1016.5 hPa | 0 mm | - | 0 W/m² | - |
| 1777149428 | 17.22° C | 52% | 1016.1 hPa | 0 mm | - | 0 W/m² | - |
| 1777148205 | 17.78° C | 55% | 1015.4 hPa | 0 mm | - | 0 W/m² | - |
| 1777146991 | 17.78° C | 55% | 1015.4 hPa | 0 mm | - | 0 W/m² | - |
| 1777145766 | 17.78° C | 55% | 1015.4 hPa | 0 mm | - | 0 W/m² | - |
* Rain latest hour (hover to see other rain measurements)
** Current wind speed in m/s (hover to see current wind gust speed)